Weather History for Indiana, PA

Change the Weather History Date:

Saturday, May 5, 2012

  Actual Average Record
Temperature  
Mean Temperature 67 °F -  
Max Temperature 75 °F 68 °F 89 °F (1949)
Min Temperature 59 °F 41 °F 26 °F (1961)
Cooling Degree Days 2    
Growing Degree Days 17 (Base 50)    
Moisture  
Dew Point 62 °F    
Average Humidity 89    
Maximum Humidity 100    
Minimum Humidity 65    
Precipitation  
Precipitation 0.01 in - - ()
Sea Level Pressure  
Sea Level Pressure 29.96 in    
Wind  
Wind Speed 2 mph (ENE)    
Max Wind Speed 9 mph    
Max Gust Speed -    
Visibility 7 miles    
Events      
Averages and records for this station are not official NWS values.
T = Trace of Precipitation, MM = Missing Value Source: NWS Daily Summary

Daily Weather History Graph

Daily Weather History Graph

Search for Another Location

Airport:

Trip Planner

Search our weather history database for the weather conditions in past years. The results will help you decide how hot, cold, wet, or windy it might be!

Date:

Astronomy

May. 05, 2012 Rise Set
Actual Time 6:09 AM EDT 8:17 PM EDT
Civil Twilight 5:39 AM EDT 8:47 PM EDT
Nautical Twilight 5:02 AM EDT 9:24 PM EDT
Astronomical Twilight 4:22 AM EDT 10:04 PM EDT
Moon 8:07 PM EDT (5/5) 5:31 AM EDT (5/5)
Length of Visible Light 15h 07m
Length of Day
14h 07m
Full, 100% of the Moon is Illuminated
May 5
Full
May 5
Full
May 12
Last Quarter
May 20
New
May 28
First Quarter

Hourly Weather History & Observations

Time (EDT) Temp. Dew Point Humidity Pressure Visibility Wind Dir Wind Speed Gust Speed Precip Events Conditions
12:15 AM 62.6 °F 62.6 °F 100% 29.97 in 7.0 mi Calm Calm - N/A   Mostly Cloudy
12:35 AM 62.6 °F 62.6 °F 100% 29.96 in 7.0 mi Calm Calm - N/A   Overcast
12:55 AM 62.6 °F 62.6 °F 100% 29.96 in 5.0 mi Calm Calm - N/A   Overcast
1:15 AM 62.6 °F 62.6 °F 100% 29.95 in 7.0 mi Calm Calm - N/A   Overcast
1:35 AM 62.6 °F 62.6 °F 100% 29.95 in 7.0 mi Calm Calm - N/A   Scattered Clouds
1:55 AM 62.6 °F 62.6 °F 100% 29.95 in 10.0 mi Calm Calm - N/A   Clear
2:15 AM 62.6 °F 62.6 °F 100% 29.96 in 7.0 mi Calm Calm - N/A   Mostly Cloudy
2:35 AM 62.6 °F 62.6 °F 100% 29.94 in 5.0 mi Calm Calm - N/A   Scattered Clouds
2:55 AM 62.6 °F 62.6 °F 100% 29.94 in 5.0 mi Calm Calm - N/A   Clear
3:15 AM 60.8 °F 60.8 °F 100% 29.94 in 0.5 mi Calm Calm - N/A   Mostly Cloudy
3:35 AM 60.8 °F 60.8 °F 100% 29.94 in 0.2 mi Calm Calm - N/A   Overcast
3:55 AM 60.8 °F 60.8 °F 100% 29.93 in 0.5 mi Calm Calm - N/A   Overcast
4:15 AM 60.8 °F 60.8 °F 100% 29.94 in 0.5 mi Calm Calm - 0.01 in   Overcast
4:35 AM 60.8 °F 60.8 °F 100% 29.94 in 0.5 mi Calm Calm - 0.01 in   Overcast
4:55 AM 60.8 °F 60.8 °F 100% 29.94 in 0.2 mi Calm Calm - 0.01 in   Overcast
5:15 AM 60.8 °F 60.8 °F 100% 29.94 in 0.5 mi ESE 3.5 mph - N/A   Overcast
5:35 AM 60.8 °F 60.8 °F 100% 29.94 in 0.2 mi East 4.6 mph - N/A   Overcast
5:55 AM 59.0 °F 59.0 °F 100% 29.94 in 0.2 mi Calm Calm - N/A   Overcast
6:15 AM 59.0 °F 59.0 °F 100% 29.94 in 0.2 mi East 3.5 mph - N/A   Overcast
6:35 AM 59.0 °F 59.0 °F 100% 29.94 in 0.2 mi Calm Calm - N/A   Overcast
6:55 AM 59.0 °F 59.0 °F 100% 29.95 in 0.2 mi Calm Calm - N/A   Overcast
7:15 AM 59.0 °F 59.0 °F 100% 29.95 in 0.2 mi Calm Calm - N/A   Overcast
7:35 AM 59.0 °F 59.0 °F 100% 29.96 in 0.5 mi Calm Calm - N/A   Overcast
7:55 AM 60.8 °F 60.8 °F 100% 29.96 in 0.5 mi East 3.5 mph - N/A   Overcast
8:15 AM 60.8 °F 60.8 °F 100% 29.96 in 10.0 mi East 5.8 mph - N/A   Scattered Clouds
8:35 AM 60.8 °F 60.8 °F 100% 29.97 in 3.0 mi NE 4.6 mph - N/A   Mostly Cloudy
8:55 AM 62.6 °F 62.6 °F 100% 29.97 in 7.0 mi ENE 6.9 mph - N/A   Overcast
9:15 AM 62.6 °F 62.6 °F 100% 29.98 in 10.0 mi East 6.9 mph - N/A   Overcast
9:35 AM 62.6 °F 62.6 °F 100% 29.99 in 10.0 mi East 3.5 mph - N/A   Overcast
9:55 AM 62.6 °F 62.6 °F 100% 29.99 in 10.0 mi ENE 3.5 mph - N/A   Overcast
10:15 AM 64.4 °F 64.4 °F 100% 29.99 in 10.0 mi East 9.2 mph - N/A   Mostly Cloudy
10:35 AM 64.4 °F 64.4 °F 100% 29.99 in 10.0 mi ESE 4.6 mph - N/A   Overcast
10:55 AM 66.2 °F 64.4 °F 94% 29.99 in 10.0 mi East 8.1 mph - N/A   Mostly Cloudy
11:15 AM 68.0 °F 64.4 °F 88% 29.99 in 10.0 mi ESE 5.8 mph - N/A   Scattered Clouds
11:35 AM 69.8 °F 66.2 °F 88% 29.99 in 10.0 mi East 4.6 mph - N/A   Mostly Cloudy
11:55 AM 69.8 °F 66.2 °F 88% 29.99 in 10.0 mi ENE 4.6 mph - N/A   Mostly Cloudy
12:15 PM 69.8 °F 66.2 °F 88% 29.99 in 10.0 mi Calm Calm - N/A   Overcast
12:35 PM 69.8 °F 66.2 °F 88% 29.97 in 10.0 mi Calm Calm - N/A   Mostly Cloudy
12:55 PM 71.6 °F 66.2 °F 83% 29.97 in 10.0 mi Calm Calm - N/A   Clear
1:15 PM 73.4 °F 64.4 °F 73% 29.96 in 10.0 mi ENE 3.5 mph - N/A   Clear
1:35 PM 73.4 °F 64.4 °F 73% 29.96 in 10.0 mi NE 4.6 mph - N/A   Scattered Clouds
1:55 PM 75.2 °F 62.6 °F 65% 29.96 in 10.0 mi ENE 4.6 mph - N/A   Scattered Clouds
2:15 PM 75.2 °F 62.6 °F 65% 29.95 in 10.0 mi East 5.8 mph - N/A   Scattered Clouds
2:35 PM 75.2 °F 62.6 °F 65% 29.95 in 10.0 mi ENE 4.6 mph - N/A   Mostly Cloudy
2:55 PM 73.4 °F 62.6 °F 69% 29.95 in 10.0 mi ENE 6.9 mph - N/A   Overcast
3:15 PM 73.4 °F 62.6 °F 69% 29.95 in 10.0 mi NE 4.6 mph - N/A   Scattered Clouds
3:35 PM 75.2 °F 64.4 °F 69% 29.94 in 10.0 mi NE 4.6 mph - N/A   Scattered Clouds
3:55 PM 75.2 °F 62.6 °F 65% 29.93 in 10.0 mi East 6.9 mph - N/A   Scattered Clouds
4:15 PM 73.4 °F 62.6 °F 69% 29.93 in 10.0 mi East 8.1 mph - N/A   Mostly Cloudy
4:35 PM 75.2 °F 64.4 °F 69% 29.93 in 10.0 mi East 8.1 mph - N/A   Scattered Clouds
4:55 PM 73.4 °F 62.6 °F 69% 29.94 in 10.0 mi East 9.2 mph - N/A   Mostly Cloudy
5:15 PM 73.4 °F 62.6 °F 69% 29.94 in 10.0 mi ENE 8.1 mph - N/A   Mostly Cloudy
5:35 PM 73.4 °F 62.6 °F 69% 29.95 in 10.0 mi ENE 5.8 mph - N/A   Scattered Clouds
5:55 PM 73.4 °F 62.6 °F 69% 29.95 in 10.0 mi East 6.9 mph - N/A   Scattered Clouds
6:15 PM 73.4 °F 62.6 °F 69% 29.95 in 10.0 mi ENE 5.8 mph - N/A   Clear
6:55 PM 73.4 °F 60.8 °F 65% 29.95 in 10.0 mi ENE 5.8 mph - N/A   Clear
7:15 PM 73.4 °F 60.8 °F 65% 29.96 in 10.0 mi East 3.5 mph - N/A   Clear
7:35 PM 71.6 °F 60.8 °F 69% 29.96 in 10.0 mi East 4.6 mph - N/A   Clear
7:55 PM 71.6 °F 60.8 °F 69% 29.97 in 10.0 mi Calm Calm - N/A   Clear
8:15 PM 69.8 °F 62.6 °F 78% 29.97 in 10.0 mi Calm Calm - N/A   Clear
8:35 PM 68.0 °F 62.6 °F 83% 29.97 in 10.0 mi Calm Calm - N/A   Clear
8:55 PM 66.2 °F 62.6 °F 88% 29.98 in 10.0 mi Calm Calm - N/A   Clear
9:15 PM 64.4 °F 62.6 °F 94% 29.99 in 10.0 mi Calm Calm - N/A   Clear
9:35 PM 62.6 °F 62.6 °F 100% 30.00 in 10.0 mi Calm Calm - N/A   Clear
9:55 PM 62.6 °F 62.6 °F 100% 30.01 in 7.0 mi Calm Calm - N/A   Clear
10:15 PM 60.8 °F 60.8 °F 100% 30.02 in 10.0 mi Calm Calm - N/A   Clear
10:35 PM 60.8 °F 60.8 °F 100% 30.02 in 10.0 mi Calm Calm - N/A   Scattered Clouds
11:15 PM 60.8 °F 60.8 °F 100% 30.02 in 10.0 mi Calm Calm - N/A   Scattered Clouds
11:35 PM 60.8 °F 60.8 °F 100% 30.02 in 10.0 mi Calm Calm - N/A   Scattered Clouds
11:55 PM 60.8 °F 60.8 °F 100% 30.02 in 10.0 mi NNE 3.5 mph - N/A   Clear